Antwerp, Belgium

12:58 PM CEST on April 29, 2017 (GMT +0200)
Deurne

Weather History for EBAW - July, 2013

Change the Weather History Date:

Tuesday, July 30, 2013

  Actual Average Record
Temperature  
Mean Temperature 64 °F -  
Max Temperature 69 °F 72 °F 93 °F (2002)
Min Temperature 59 °F 56 °F 50 °F (2007)
Degree Days  
Heating Degree Days 1    
Growing Degree Days 14 (Base 50)    
Moisture  
Dew Point 58 °F    
Average Humidity 80    
Maximum Humidity 94    
Minimum Humidity 53    
Precipitation  
Precipitation 0.00 in - - ()
Sea Level Pressure  
Sea Level Pressure 30.02 in    
Wind  
Wind Speed 9 mph ()    
Max Wind Speed 15 mph    
Max Gust Speed 28 mph    
Visibility 7.0 miles    
Events Rain    
Averages and records for this station are not official NWS values.
T = Trace of Precipitation, MM = Missing Value Source: Averaged Metar Reports

Daily Weather History Graph

Daily Weather History Graph

Search for Another Location

Airport or City:

Trip Planner

Search our weather history database for the weather conditions in past years. The results will help you decide how hot, cold, wet, or windy it might be!

Date:

Astronomy

Jul. 30, 2013 Rise Set
Actual Time 6:04 AM CEST 9:31 PM CEST
Civil Twilight 5:23 AM CEST 10:12 PM CEST
Nautical Twilight 4:28 AM CEST 11:06 PM CEST
Astronomical Twilight 3:10 AM CEST 12:22 AM CEST
Moon 12:21 AM CEST (7/30) 3:32 PM CEST (7/30)
Length of Visible Light 16h 48m
Length of Day
15h 27m
Last Quarter, 43% of the Moon is Illuminated
Jul 30
Last Quarter
Aug 6
New
Aug 14
First Quarter
Aug 21
Full
Aug 28
Last Quarter

Hourly Weather History & Observations

Time (CEST) Temp. Dew Point Humidity Pressure Visibility Wind Dir Wind Speed Gust Speed Precip Events Conditions
12:20 AM 62.6 °F 57.2 °F 82% 30.04 in 6.2 mi SSW 8.1 mph - N/A   Partly Cloudy
12:50 AM 62.6 °F 57.2 °F 82% 30.04 in - SSW 8.1 mph - N/A   Clear
1:20 AM 62.6 °F 59.0 °F 88% 30.04 in 6.2 mi SW 9.2 mph - N/A   Scattered Clouds
1:50 AM 62.6 °F 59.0 °F 88% 30.04 in - SW 5.8 mph - N/A   Clear
2:00 AM 62 °F 58 °F 84% 30.04 in 22 mi SW 6.7 mph - -  
2:20 AM 62.6 °F 59.0 °F 88% 30.04 in - SW 8.1 mph - N/A   Clear
2:50 AM 60.8 °F 59.0 °F 94% 30.04 in - SW 8.1 mph - N/A   Clear
3:20 AM 60.8 °F 59.0 °F 94% 30.04 in - SW 8.1 mph - N/A   Clear
3:50 AM 60.8 °F 57.2 °F 88% 30.04 in - SW 8.1 mph - N/A   Clear
4:20 AM 60.8 °F 57.2 °F 88% 30.04 in - SW 6.9 mph - N/A   Clear
4:50 AM 60.8 °F 57.2 °F 88% 30.04 in - SW 8.1 mph - N/A   Clear
5:00 AM 60 °F 57 °F 87% 30.05 in 10 mi SW 6.7 mph - -  
5:20 AM 59.0 °F 57.2 °F 94% 30.04 in - SW 8.1 mph - N/A   Clear
5:50 AM 60.8 °F 57.2 °F 88% 30.04 in - SW 8.1 mph - N/A   Clear
6:20 AM 59.0 °F 57.2 °F 94% 30.06 in - SW 9.2 mph - N/A   Clear
6:50 AM 60.8 °F 57.2 °F 88% 30.06 in - SW 9.2 mph - N/A   Clear
7:20 AM 60.8 °F 57.2 °F 88% 30.06 in - SW 9.2 mph - N/A   Clear
7:50 AM 60.8 °F 57.2 °F 88% 30.06 in - SW 9.2 mph - N/A   Clear
8:00 AM 61 °F 57 °F 81% 30.07 in 16 mi SW 8.9 mph - -   Partly Cloudy
8:20 AM 62.6 °F 57.2 °F 82% 30.06 in 6.2 mi SW 10.4 mph - N/A   Scattered Clouds
8:50 AM 62.6 °F 57.2 °F 82% 30.06 in 6.2 mi SW 11.5 mph - N/A   Scattered Clouds
9:20 AM 64.4 °F 57.2 °F 77% 30.06 in 6.2 mi SW 13.8 mph - N/A   Scattered Clouds
9:50 AM 66.2 °F 57.2 °F 73% 30.06 in 6.2 mi SW 12.7 mph - N/A   Scattered Clouds
10:20 AM 66.2 °F 55.4 °F 68% 30.06 in 6.2 mi SW 11.5 mph - N/A   Mostly Cloudy
10:50 AM 66.2 °F 55.4 °F 68% 30.06 in 6.2 mi WSW 12.7 mph - N/A   Mostly Cloudy
11:00 AM 66 °F 56 °F 62% 30.07 in 16 mi WSW 13.4 mph - -   Mostly Cloudy
11:20 AM 68.0 °F 55.4 °F 64% 30.06 in 6.2 mi WSW 12.7 mph - N/A   Mostly Cloudy
11:50 AM 68.0 °F 55.4 °F 64% 30.04 in 6.2 mi SW 12.7 mph - N/A   Mostly Cloudy
12:20 PM 68.0 °F 55.4 °F 64% 30.04 in 6.2 mi SW 12.7 mph - N/A   Mostly Cloudy
12:50 PM 68.0 °F 57.2 °F 68% 30.04 in 6.2 mi SW 10.4 mph - N/A Rain Light Rain Showers
1:20 PM 69.8 °F 57.2 °F 64% 30.04 in 6.2 mi SW 13.8 mph - N/A Rain Light Rain Showers
1:50 PM 69.8 °F 55.4 °F 60% 30.04 in 6.2 mi SW 9.2 mph - N/A   Mostly Cloudy
2:00 PM 69 °F 56 °F 53% 30.04 in 19 mi SW 8.9 mph - - Rain Light Rain Showers
2:20 PM 69.8 °F 55.4 °F 60% 30.04 in 6.2 mi SSW 12.7 mph - N/A   Mostly Cloudy
2:50 PM 69.8 °F 55.4 °F 60% 30.04 in 6.2 mi SSW 15.0 mph - N/A   Mostly Cloudy
3:20 PM 68.0 °F 55.4 °F 64% 30.04 in 6.2 mi SW 15.0 mph - N/A   Scattered Clouds
3:50 PM 66.2 °F 57.2 °F 73% 30.04 in 6.2 mi SSW 15.0 mph - N/A   Mostly Cloudy
4:20 PM 66.2 °F 57.2 °F 73% 30.04 in 6.2 mi SW 11.5 mph - N/A   Mostly Cloudy
4:50 PM 66.2 °F 59.0 °F 78% 30.01 in 6.2 mi SSW 11.5 mph - N/A   Mostly Cloudy
5:00 PM 67 °F 58 °F 66% 30.03 in 16 mi SSW 11.2 mph - -   Mostly Cloudy
5:20 PM 66.2 °F 57.2 °F 73% 30.01 in 6.2 mi SW 15.0 mph - N/A   Mostly Cloudy
5:50 PM 64.4 °F 59.0 °F 83% 30.01 in 4.3 mi SW 13.8 mph 27.6 mph N/A Rain Light Rain Showers
6:20 PM 64.4 °F 59.0 °F 83% 29.98 in 6.2 mi SSW 12.7 mph - N/A   Mostly Cloudy
6:50 PM 64.4 °F 60.8 °F 88% 29.98 in 3.1 mi SSW 12.7 mph - N/A Rain Light Rain
7:20 PM 62.6 °F 60.8 °F 94% 29.95 in 3.1 mi South 10.4 mph - N/A Rain Light Rain
7:50 PM 64.4 °F 60.8 °F 88% 29.95 in 2.5 mi South 11.5 mph - N/A Rain Light Rain
8:20 PM 64.4 °F 62.6 °F 94% 29.95 in 6.2 mi South 11.5 mph - N/A Rain Light Rain
8:50 PM 64.4 °F 62.6 °F 94% 29.95 in 4.3 mi SSW 12.7 mph - N/A Rain Light Rain
9:20 PM 64.4 °F 62.6 °F 94% 29.95 in 6.2 mi SSW 11.5 mph - N/A   Mostly Cloudy
9:50 PM 66.2 °F 62.6 °F 88% 29.95 in 3.7 mi SSW 11.5 mph - N/A Rain Light Rain
10:20 PM 66.2 °F 62.6 °F 88% 29.95 in 6.2 mi SW 12.7 mph - N/A   Mostly Cloudy
10:50 PM 66.2 °F 64.4 °F 94% 29.95 in 6.2 mi SW 9.2 mph - N/A   Mostly Cloudy
11:00 PM 66 °F 64 °F 90% 29.96 in 9 mi SW 8.9 mph - - Rain Light Rain
11:20 PM 66.2 °F 62.6 °F 88% 29.95 in 6.2 mi WSW 13.8 mph - N/A   Overcast
11:50 PM 66.2 °F 62.6 °F 88% 29.95 in 6.2 mi WSW 12.7 mph - N/A Rain Light Rain Showers